GW6266 Weather Reports


time (UTC)temp
C
wind
direction
speed
KPH
gust
KPH
rain 1hr
cm
rain 24hr
cm
rain mn
cm
humidity
%
barometer
mb
20260503070627 10 221 0.0 0.0 0.00 0.00 0.00 76 1014.5
20260503070127 10 221 0.0 0.0 0.00 0.00 0.00 75 1014.4
20260503060127 11 221 0.0 0.0 0.00 0.00 0.00 70 1014.4
20260503054626 12 221 0.0 1.6 0.00 0.00 0.00 68 1014.5
20260503054126 12 221 0.0 0.0 0.00 0.00 0.00 68 1014.5
20260503053628 12 221 0.0 0.0 0.00 0.00 0.00 67 1014.6
20260503053127 12 221 0.0 0.0 0.00 0.00 0.00 66 1014.6
20260503052628 12 221 0.0 0.0 0.00 0.00 0.00 65 1014.7
20260503052128 13 221 0.0 0.0 0.00 0.00 0.00 64 1014.6
20260503051627 13 221 0.0 0.0 0.00 0.00 0.00 64 1014.7
20260503051127 13 221 0.0 0.0 0.00 0.00 0.00 62 1014.6
20260503050627 13 221 0.0 0.0 0.00 0.00 0.00 61 1014.6
20260503050126 13 221 0.0 0.0 0.00 0.00 0.00 60 1014.7
20260503045626 13 221 0.0 0.0 0.00 0.00 0.00 60 1014.6
20260503045128 13 221 0.0 0.0 0.00 0.00 0.00 60 1014.6
20260503044911 14 221 0.0 0.0 0.00 0.00 0.00 59 1014.6
20260503044127 14 221 0.0 3.2 0.00 0.00 0.00 59 1014.6
20260503043626 15 221 0.0 3.2 0.00 0.00 0.00 58 1014.6
20260503043127 15 221 0.0 1.6 0.00 0.00 0.00 57 1014.5
20260503042917 15 221 0.0 0.0 0.00 0.00 0.00 57 1014.5
20260503042127 15 221 0.0 1.6 0.00 0.00 0.00 55 1014.4
20260503041626 15 221 0.0 1.6 0.00 0.00 0.00 55 1014.4
20260503041126 16 210 0.0 3.2 0.00 0.00 0.00 53 1014.3
20260503040626 16 210 0.0 3.2 0.00 0.00 0.00 53 1014.3
20260503040127 16 210 0.0 0.0 0.00 0.00 0.00 50 1014.4
20260503035628 16 210 0.0 0.0 0.00 0.00 0.00 49 1014.3
20260503035127 17 210 0.0 1.6 0.00 0.00 0.00 49 1014.3
20260503034626 17 210 0.0 3.2 0.00 0.00 0.00 50 1014.3
20260503034126 17 210 0.0 3.2 0.00 0.00 0.00 47 1014.2
20260503033627 17 210 0.0 0.0 0.00 0.00 0.00 47 1014.0
20260503033414 18 210 0.0 0.0 0.00 0.00 0.00 46 1014.1
20260503032626 18 210 0.0 0.0 0.00 0.00 0.00 44 1014.0
20260503032127 18 210 0.0 0.0 0.00 0.00 0.00 43 1013.9
20260503031909 19 210 0.0 0.0 0.00 0.00 0.00 41 1013.9
20260503031126 19 210 0.0 0.0 0.00 0.00 0.00 41 1013.9
20260503030626 20 210 0.0 0.0 0.00 0.00 0.00 40 1013.8
20260503030411 20 210 0.0 0.0 0.00 0.00 0.00 39 1013.8
20260503025627 20 210 0.0 0.0 0.00 0.00 0.00 38 1013.9
20260503025128 20 210 0.0 0.0 0.00 0.00 0.00 37 1013.8
20260503024626 20 210 0.0 0.0 0.00 0.00 0.00 36 1013.8
20260503024128 21 210 0.0 3.2 0.00 0.00 0.00 35 1013.7
20260503023627 21 210 0.0 3.2 0.00 0.00 0.00 35 1013.7
20260503023127 21 210 0.0 3.2 0.00 0.00 0.00 35 1013.7
20260503022626 21 204 0.0 3.2 0.00 0.00 0.00 34 1013.7
20260503022127 21 309 0.0 3.2 0.00 0.00 0.00 33 1013.7
20260503021626 21 333 0.0 1.6 0.00 0.00 0.00 34 1013.5
20260503021127 22 333 0.0 3.2 0.00 0.00 0.00 32 1013.7
20260503020626 22 286 0.0 3.2 0.00 0.00 0.00 31 1013.7
20260503020127 22 258 1.6 3.2 0.00 0.00 0.00 31 1013.5
20260503015627 22 293 0.0 3.2 0.00 0.00 0.00 31 1013.5
20260503015127 22 251 0.0 3.2 0.00 0.00 0.00 31 1013.4
20260503014627 22 197 0.0 3.2 0.00 0.00 0.00 30 1013.4
20260503014127 23 300 0.0 4.8 0.00 0.00 0.00 30 1013.5
20260503013627 23 274 0.0 4.8 0.00 0.00 0.00 29 1013.5
20260503013125 23 206 0.0 3.2 0.00 0.00 0.00 28 1013.5
20260503012628 23 255 0.0 3.2 0.00 0.00 0.00 28 1013.4
20260503012413 23 219 0.0 3.2 0.00 0.00 0.00 27 1013.5
20260503011627 23 293 0.0 3.2 0.00 0.00 0.00 28 1013.5
20260503011126 23 285 0.0 3.2 0.00 0.00 0.00 28 1013.5
20260503010628 23 299 0.0 4.8 0.00 0.00 0.00 25 1013.5
20260503010415 23 48 1.6 6.4 0.00 0.00 0.00 25 1013.5
20260503005626 23 282 1.6 6.4 0.00 0.00 0.00 25 1013.7
20260503005126 24 295 0.0 4.8 0.00 0.00 0.00 25 1013.5
20260503004626 24 334 1.6 6.4 0.00 0.00 0.00 25 1013.7
20260503004126 24 197 0.0 6.4 0.00 0.00 0.00 24 1013.7
20260503003627 24 247 0.0 8.0 0.00 0.00 0.00 24 1013.7
20260503003413 25 312 0.0 8.0 0.00 0.00 0.00 24 1013.7
20260503002627 25 320 1.6 3.2 0.00 0.00 0.00 26 1013.7
20260503002408 25 168 0.0 4.8 0.00 0.00 0.00 25 1013.5
20260503001627 25 180 1.6 4.8 0.00 0.00 0.00 24 1013.5
20260503001206 25 175 0.0 8.0 0.00 0.00 0.00 24 1013.7
20260503001154 25 193 0.0 4.8 0.00 0.00 0.00 24 1013.7
20260503000126 26 152 1.6 8.0 0.00 0.00 0.00 23 1013.7
20260502235626 26 140 0.0 6.4 0.00 0.00 0.00 25 1013.7
20260502235202 26 292 0.0 3.2 0.00 0.00 0.00 25 1013.8
20260502235152 26 316 0.0 4.8 0.00 0.00 0.00 25 1013.8
20260502234126 26 214 0.0 3.2 0.00 0.00 0.00 26 1013.9
20260502233627 26 54 1.6 3.2 0.00 0.00 0.00 26 1013.8
20260502233126 26 124 0.0 3.2 0.00 0.00 0.00 26 1014.0
20260502232911 26 144 0.0 3.2 0.00 0.00 0.00 27 1014.0
20260502232127 26 171 0.0 3.2 0.00 0.00 0.00 25 1014.1
20260502231626 26 173 0.0 3.2 0.00 0.00 0.00 24 1014.1
20260502231125 26 212 0.0 3.2 0.00 0.00 0.00 24 1014.2
20260502230904 26 319 0.0 6.4 0.00 0.00 0.00 22 1014.1
20260502230126 26 0 0.0 6.4 0.00 0.00 0.00 26 1014.2
20260502225626 26 289 1.6 4.8 0.00 0.00 0.00 25 1014.3
20260502225126 26 55 0.0 3.2 0.00 0.00 0.00 26 1014.3
20260502224915 26 107 0.0 3.2 0.00 0.00 0.00 25 1014.4
20260502224125 26 190 0.0 3.2 0.00 0.00 0.00 24 1014.4
20260502223626 26 134 0.0 3.2 0.00 0.00 0.00 27 1014.5
20260502223127 26 68 1.6 4.8 0.00 0.00 0.00 26 1014.5
20260502222627 26 306 1.6 4.8 0.00 0.00 0.00 25 1014.6
20260502222128 26 290 1.6 6.4 0.00 0.00 0.00 25 1014.7
20260502221626 26 135 1.6 6.4 0.00 0.00 0.00 25 1014.7
20260502221127 26 25 1.6 4.8 0.00 0.00 0.00 26 1014.7
20260502220627 26 99 1.6 6.4 0.00 0.00 0.00 25 1014.7
20260502220127 26 94 1.6 6.4 0.00 0.00 0.00 27 1014.9
20260502215627 26 165 1.6 4.8 0.00 0.00 0.00 24 1014.9
20260502215126 26 109 0.0 3.2 0.00 0.00 0.00 27 1014.9
20260502214625 26 73 0.0 4.8 0.00 0.00 0.00 28 1015.1
20260502214127 26 62 1.6 4.8 0.00 0.00 0.00 26 1015.1
20260502213626 26 110 0.0 6.4 0.00 0.00 0.00 25 1015.1
20260502213125 26 65 1.6 6.4 0.00 0.00 0.00 24 1015.2
20260502212627 26 61 1.6 3.2 0.00 0.00 0.00 26 1015.3
20260502212412 26 128 1.6 4.8 0.00 0.00 0.00 27 1015.2
20260502211627 25 92 1.6 4.8 0.00 0.00 0.00 27 1015.3
20260502211126 25 90 1.6 6.4 0.00 0.00 0.00 27 1015.4
20260502210627 25 130 3.2 6.4 0.00 0.00 0.00 25 1015.5
20260502210126 25 171 3.2 6.4 0.00 0.00 0.00 26 1015.5
20260502205911 25 149 1.6 6.4 0.00 0.00 0.00 27 1015.4
20260502205127 25 164 1.6 4.8 0.00 0.00 0.00 31 1015.5
20260502204626 25 82 1.6 4.8 0.00 0.00 0.00 26 1015.5
20260502204125 25 47 1.6 6.4 0.00 0.00 0.00 28 1015.5
20260502203627 25 78 1.6 6.4 0.00 0.00 0.00 28 1015.6
20260502203125 25 92 1.6 6.4 0.00 0.00 0.00 31 1015.6
20260502202626 25 78 1.6 6.4 0.00 0.00 0.00 27 1015.6
20260502202126 25 145 1.6 4.8 0.00 0.00 0.00 29 1015.6
20260502201626 25 13 1.6 4.8 0.00 0.00 0.00 31 1015.6
20260502201414 25 37 1.6 6.4 0.00 0.00 0.00 30 1015.7
20260502201056 25 37 1.6 8.0 0.00 0.00 0.00 30 1015.7
20260502201051 25 94 1.6 6.4 0.00 0.00 0.00 30 1015.8
20260502195627 25 118 1.6 8.0 0.00 0.00 0.00 30 1015.7
20260502195411 24 24 3.2 6.4 0.00 0.00 0.00 32 1015.8
20260502194625 24 111 0.0 6.4 0.00 0.00 0.00 32 1015.8
20260502194126 24 0 1.6 9.7 0.00 0.00 0.00 34 1015.9
20260502193912 23 125 3.2 9.7 0.00 0.00 0.00 36 1016.0
20260502193126 23 82 3.2 8.0 0.00 0.00 0.00 34 1016.0
20260502192627 23 58 1.6 9.7 0.00 0.00 0.00 34 1015.9
20260502192124 23 110 3.2 9.7 0.00 0.00 0.00 36 1016.0
20260502191625 23 93 3.2 9.7 0.00 0.00 0.00 34 1016.1
20260502191127 23 54 3.2 9.7 0.00 0.00 0.00 37 1016.1
20260502190912 24 55 3.2 8.0 0.00 0.00 0.00 36 1016.1
20260502190125 23 37 1.6 9.7 0.00 0.00 0.00 35 1016.1
20260502185908 23 111 3.2 9.7 0.00 0.00 0.00 35 1016.1
20260502185126 23 282 1.6 8.0 0.00 0.00 0.00 36 1016.2
20260502184625 23 17 1.6 8.0 0.00 0.00 0.00 35 1016.4
20260502184126 23 125 3.2 9.7 0.00 0.00 0.00 36 1016.5
20260502183914 22 71 0.0 9.7 0.00 0.00 0.00 35 1016.4
20260502183126 22 34 1.6 8.0 0.00 0.00 0.00 35 1016.4
20260502182625 22 127 3.2 8.0 0.00 0.00 0.00 35 1016.5
20260502182125 22 117 3.2 8.0 0.00 0.00 0.00 37 1016.6
20260502181629 22 65 3.2 8.0 0.00 0.00 0.00 36 1016.5
20260502181126 22 97 1.6 8.0 0.00 0.00 0.00 37 1016.5
20260502180626 22 166 3.2 8.0 0.00 0.00 0.00 37 1016.4
20260502180126 22 41 3.2 6.4 0.00 0.00 0.00 38 1016.6
20260502170125 20 0 3.2 9.7 0.00 0.00 0.00 39 1016.7
20260502164125 19 104 3.2 8.0 0.00 0.00 0.00 39 1016.6
20260502163626 19 327 1.6 4.8 0.00 0.00 0.00 40 1016.7
20260502163125 18 25 1.6 8.0 0.00 0.00 0.00 40 1016.7
20260502162625 18 313 3.2 9.7 0.00 0.00 0.00 40 1016.7
20260502162125 18 0 4.8 9.7 0.00 0.00 0.00 40 1016.7
20260502161912 18 18 1.6 9.7 0.00 0.00 0.00 41 1016.7
20260502161159 18 344 3.2 6.4 0.00 0.00 0.00 40 1016.8
20260502161150 18 337 3.2 8.0 0.00 0.00 0.00 39 1016.8
20260502160124 18 338 1.6 6.4 0.00 0.00 0.00 40 1016.7
20260502152125 16 250 1.6 8.0 0.00 0.00 0.00 42 1016.6
20260502151911 16 52 3.2 11.3 0.00 0.00 0.00 42 1016.6
20260502151412 16 82 3.2 11.3 0.00 0.00 0.00 42 1016.5
20260502150626 16 56 3.2 8.0 0.00 0.00 0.00 43 1016.5
20260502150125 16 357 3.2 8.0 0.00 0.00 0.00 43 1016.6
20260502140126 10 1 0.0 0.0 0.00 0.00 0.00 62 1016.4
20260502130626 10 353 0.0 3.2 0.00 0.00 0.00 60 1016.4
20260502130413 10 0 0.0 3.2 0.00 0.00 0.00 61 1016.2
20260502123621 10 312 0.0 3.2 0.00 0.00 0.00 60 1016.0
20260502123402 10 312 0.0 3.2 0.00 0.00 0.00 59 1015.9
20260502122843 10 310 0.0 3.2 0.00 0.00 0.00 59 1016.0
20260502122617 10 310 0.0 3.2 0.00 0.00 0.00 59 1016.0
20260502122113 10 310 0.0 3.2 0.00 0.00 0.00 59 1015.9
20260502121606 10 319 0.0 3.2 0.00 0.00 0.00 59 1015.9
20260502121105 10 330 0.0 3.2 0.00 0.00 0.00 59 1015.9
20260502120607 10 330 0.0 3.2 0.00 0.00 0.00 59 1015.9
20260502115601 10 0 0.0 3.2 0.00 0.00 0.00 61 1015.9
20260502115102 10 83 0.0 3.2 0.00 0.00 0.00 61 1016.0
20260502114601 10 86 0.0 3.2 0.00 0.00 0.00 61 1015.9
20260502114102 10 306 0.0 3.2 0.00 0.00 0.00 61 1016.0
20260502113603 10 306 0.0 3.2 0.00 0.00 0.00 62 1016.0
20260502113321 10 0 0.0 3.2 0.00 0.00 0.00 62 1015.9
20260502112100 11 355 0.0 3.2 0.00 0.00 0.00 61 1016.0
20260502111847 11 355 0.0 3.2 0.00 0.00 0.00 62 1015.9
20260502111102 11 355 0.0 3.2 0.00 0.00 0.00 61 1015.8
20260502110846 11 358 0.0 3.2 0.00 0.00 0.00 60 1015.9
20260502110053 11 358 0.0 3.2 0.00 0.00 0.00 59 1015.9
20260502105551 11 314 0.0 3.2 0.00 0.00 0.00 60 1015.9
20260502105042 11 343 0.0 3.2 0.00 0.00 0.00 61 1015.9
20260502104831 10 338 0.0 3.2 0.00 0.00 0.00 62 1015.9
20260502104332 10 35 0.0 3.2 0.00 0.00 0.00 63 1015.8
20260502103540 10 0 0.0 3.2 0.00 0.00 0.00 62 1015.9
20260502103042 10 343 0.0 3.2 0.00 0.00 0.00 64 1015.9
20260502102543 10 334 0.0 1.6 0.00 0.00 0.00 64 1015.9
20260502102042 10 334 0.0 3.2 0.00 0.00 0.00 64 1015.9
20260502101828 10 334 0.0 3.2 0.00 0.00 0.00 65 1015.9
20260502101034 10 334 0.0 3.2 0.00 0.00 0.00 65 1015.8
20260502100535 9 334 0.0 3.2 0.00 0.00 0.00 65 1015.8
20260502091529 8 275 0.0 3.2 0.00 0.00 0.00 71 1015.9
20260502091030 8 275 0.0 3.2 0.00 0.00 0.00 72 1016.0
20260502090529 8 275 0.0 3.2 0.00 0.00 0.00 72 1016.0
20260502071525 9 275 0.0 0.0 0.00 0.00 0.00 74 1016.2
20260502071025 9 275 0.0 0.0 0.00 0.00 0.00 73 1016.1